Regional Weather Roundup
Issued by NWS

Home | Current Version | Previous Version | Graphics & Text | Print | Product List | Glossary On
Versions: 1 2 3 4 5 6 7 8 9 10 11 12 13 14 15 16 17 18 19 20 21 22 23 24 25 26 27 28 29 30 31 32 33 34 35 36 37 38 39 40 41 42 43 44 45 46 47 48 49 50
000
ASUS44 KMEG 212210
RWRTN
TENNESSEE HOURLY STATE WEATHER ROUNDUP
NATIONAL WEATHER SERVICE MEMPHIS TN
500 PM CDT THU SEP 21 2017

TNZ002-004-019-021-049-052-054-088>092-212300-
WEST TENNESSEE

CITY           SKY/WX    TMP DP  RH WIND       PRES   REMARKS
MEMPHIS INTL   MOSUNNY   90  69  50 CALM      29.98F HX  94
NWS MEMPHIS      N/A     91 N/A N/A MISG        N/A
JACKSON        SUNNY     90  70  51 W5        29.99F HX  95
DYERSBURG      SUNNY     91  72  53 W3        29.99F HX  98
SOMERVILLE     SUNNY     90  70  51 W5        29.98F HX  95
COVINGTON      SUNNY     91  66  43 CALM      29.98F HX  94
BOLIVAR        SUNNY     90  70  51 CALM      29.99S HX  95
PARIS          MOSUNNY   88  72  58 NE6       30.00S HX  94
HUNTINGDON     SUNNY     90  70  51 NE6       29.99S HX  95
LEXINGTON      PTSUNNY   82  73  74 E5        30.00S
SAVANNAH       CLOUDY    77  72  83 E10G23    30.01R
$$

TNZ008-025-027-028-033-062-065-066-212300-
NORTH MIDDLE TENNESSEE

CITY           SKY/WX    TMP DP  RH WIND       PRES   REMARKS
NASHVILLE      MOSUNNY   86  69  56 CALM      30.02S HX  90
PORTLAND       SUNNY     86  68  54 NE7       30.02S
CLARKSVILLE    MOSUNNY   83  67  58 SW6       30.02R
SMYRNA         MOSUNNY   88  70  55 NW7       30.02F HX  92
COOKEVILLE     MOSUNNY   79  68  69 N10G20    30.04R HAZE
GALLATIN       SUNNY     86  68  54 E5        30.04R
CROSSVILLE     SUNNY     80  64  58 NE5       30.10R
$$

TNZ061-075-076-078-094-096-097-212300-
SOUTH MIDDLE TENNESSEE

CITY           SKY/WX    TMP DP  RH WIND       PRES   REMARKS
TULLAHOMA      CLOUDY    73  70  88 NW13      30.06R
WINCHESTER     SUNNY     84  72  65 NE5       30.03F
MCMINNVILLE    SUNNY     88  72  58 CALM      30.04S HX  94
COLUMBIA       SUNNY     86 N/A N/A CALM      30.01S
SHELBYVILLE    SUNNY     82  68  61 E15       30.03S
$$

TNZ017-018-042-046-047-212300-
NORTHEAST TENNESSEE

CITY           SKY/WX    TMP DP  RH WIND       PRES   REMARKS
TRI CITIES     MOSUNNY   84  63  49 N7        30.06F
ELIZABETHTON   MOSUNNY   82  63  51 CALM      30.06F
$$

TNZ012-013-036-069-073-074-212300-
CENTRAL EAST TENNESSEE

CITY           SKY/WX    TMP DP  RH WIND       PRES   REMARKS
KNOXVILLE      MOSUNNY   85  63  47 N8        30.02S
OAK RIDGE      SUNNY     85  63  47 CALM      30.04F
DOWNTOWN KNOXV SUNNY     86  66  51 CALM      30.01F
GATLINBURG     PTSUNNY   88  59  37 E12       30.02S
MORRISTOWN     PTSUNNY   82  61  47 NE7       30.04F
JACKSBORO      SUNNY     81  68  65 CALM      30.08F
$$

TNZ083-085-099-212300-
SOUTHEAST TENNESSEE

CITY           SKY/WX    TMP DP  RH WIND       PRES   REMARKS
CHATTANOOGA    MOSUNNY   87  67  51 NW7       30.01S HX  90
DAYTON         CLEAR     84  73  70 N6        30.02R HX  91
$$

SKY/WX REPORTED AS FAIR MEANS FEW OR NO CLOUDS BELOW
12 THOUSAND FEET.




USA.gov is the U.S. government's official web portal to all federal, state and local government web resources and services.